• In Hungary
  • List of Countries
  • For 7 days
  • Water Temperature
  • Satellite Maps
  • Weather Map
  • News
  • Weather Widgets
  • user-avatar
    Login

    Hourly Weather Vishnevka

    Today, 22 October, Monday

    Time Temperature Precipitation Wind Pressure Humidity
    00:00 +5°C° 0 mm 3 mps 756 mmHg 75%
    01:00 +5°C° 0 mm 3 mps 756 mmHg 76%
    02:00 +5°C° 0 mm 3 mps 756 mmHg 77%
    03:00 +5°C° 0 mm 3 mps 756 mmHg 78%
    04:00 +5°C° 0 mm 3 mps 755 mmHg 79%
    05:00 +4°C° 0 mm 3 mps 755 mmHg 81%
    06:00 +4°C° 0 mm 3 mps 755 mmHg 82%
    07:00 +5°C° 0 mm 3 mps 755 mmHg 80%
    08:00 +7°C° 0 mm 3 mps 755 mmHg 78%
    09:00 +7°C° 0 mm 3 mps 755 mmHg 76%
    10:00 +8°C° 0 mm 3 mps 755 mmHg 75%
    11:00 +9°C° 0 mm 2 mps 755 mmHg 74%
    12:00 +10°C° 0 mm 2 mps 755 mmHg 73%
    13:00 +10°C° 0 mm 2 mps 754 mmHg 76%
    14:00 +10°C° 0 mm 2 mps 754 mmHg 79%
    15:00 +10°C° 0 mm 2 mps 754 mmHg 82%
    16:00 +10°C° 0.1 mm 2 mps 753 mmHg 84%
    17:00 +10°C° 0.1 mm 2 mps 753 mmHg 87%
    18:00 +10°C° 0.1 mm 2 mps 753 mmHg 89%
    19:00 +10°C° 0.1 mm 2 mps 752 mmHg 90%
    20:00 +10°C° 0.1 mm 2 mps 752 mmHg 90%
    21:00 +11°C° 0.1 mm 3 mps 752 mmHg 90%
    22:00 +11°C° 0.1 mm 3 mps 751 mmHg 89%
    23:00 +11°C° 0.1 mm 3 mps 751 mmHg 88%

    Tomorrow, 23 October, Tuesday

    Time Temperature Precipitation Wind Pressure Humidity
    00:00 +11°C° 0.1 mm 3 mps 750 mmHg 87%
    01:00 +11°C° 0.4 mm 3 mps 749 mmHg 87%
    02:00 +11°C° 0.4 mm 3 mps 749 mmHg 87%
    03:00 +10°C° 0.4 mm 3 mps 748 mmHg 86%
    04:00 +10°C° 0.6 mm 3 mps 748 mmHg 88%
    05:00 +10°C° 0.6 mm 3 mps 747 mmHg 89%
    06:00 +10°C° 0.6 mm 3 mps 746 mmHg 91%
    07:00 +10°C° 0.8 mm 3 mps 746 mmHg 91%
    08:00 +10°C° 0.8 mm 3 mps 745 mmHg 92%
    09:00 +10°C° 0.8 mm 3 mps 745 mmHg 92%
    10:00 +9°C° 0.5 mm 3 mps 744 mmHg 90%
    11:00 +8°C° 0.5 mm 4 mps 744 mmHg 88%
    12:00 +8°C° 0.5 mm 4 mps 743 mmHg 86%
    13:00 +8°C° 0.1 mm 4 mps 743 mmHg 78%
    14:00 +8°C° 0.1 mm 4 mps 743 mmHg 71%
    15:00 +10°C° 0.1 mm 4 mps 743 mmHg 63%
    16:00 +9°C° 0 mm 3 mps 742 mmHg 66%
    17:00 +8°C° 0 mm 3 mps 742 mmHg 69%
    18:00 +7°C° 0 mm 3 mps 742 mmHg 71%
    19:00 +7°C° 0 mm 3 mps 742 mmHg 72%
    20:00 +5°C° 0 mm 3 mps 742 mmHg 74%
    21:00 +5°C° 0 mm 3 mps 741 mmHg 75%
    22:00 +5°C° 0 mm 3 mps 741 mmHg 76%
    23:00 +5°C° 0 mm 4 mps 740 mmHg 76%

    Day after tomorrow, 24 October, Wednesday

    Time Temperature Precipitation Wind Pressure Humidity
    00:00 +5°C° 0 mm 4 mps 740 mmHg 77%
    01:00 +4°C° 0 mm 4 mps 739 mmHg 78%
    02:00 +4°C° 0 mm 4 mps 739 mmHg 78%
    03:00 +3°C° 0 mm 5 mps 738 mmHg 78%
    04:00 +3°C° 0 mm 5 mps 738 mmHg 78%
    05:00 +5°C° 0 mm 5 mps 737 mmHg 78%
    06:00 +4°C° 0 mm 6 mps 736 mmHg 78%
    07:00 +4°C° 0.1 mm 6 mps 736 mmHg 77%
    08:00 +5°C° 0.1 mm 6 mps 736 mmHg 76%
    09:00 +5°C° 0.1 mm 6 mps 736 mmHg 75%
    10:00 +5°C° 0.1 mm 7 mps 735 mmHg 74%
    11:00 +6°C° 0.1 mm 7 mps 735 mmHg 73%
    12:00 +6°C° 0.1 mm 7 mps 735 mmHg 72%
    13:00 +6°C° 0.3 mm 7 mps 734 mmHg 74%
    14:00 +6°C° 0.3 mm 7 mps 734 mmHg 77%
    15:00 +6°C° 0.3 mm 7 mps 733 mmHg 79%
    16:00 +7°C° 0.7 mm 6 mps 733 mmHg 82%
    17:00 +7°C° 0.7 mm 6 mps 733 mmHg 86%
    18:00 +7°C° 0.7 mm 5 mps 732 mmHg 89%
    19:00 +7°C° 0.6 mm 5 mps 732 mmHg 90%
    20:00 +8°C° 0.6 mm 5 mps 732 mmHg 90%
    21:00 +8°C° 0.6 mm 4 mps 732 mmHg 91%
    22:00 +7°C° 0 mm 4 mps 732 mmHg 92%
    23:00 +7°C° 0 mm 4 mps 732 mmHg 93%

    25 October, Thursday

    Time Temperature Precipitation Wind Pressure Humidity
    00:00 +8°C° 0 mm 3 mps 731 mmHg 94%
    01:00 +8°C° 0.1 mm 3 mps 731 mmHg 94%
    02:00 +8°C° 0.1 mm 3 mps 731 mmHg 95%
    03:00 +8°C° 0.1 mm 3 mps 731 mmHg 95%
    04:00 +8°C° 0.1 mm 4 mps 730 mmHg 94%
    05:00 +8°C° 0.1 mm 4 mps 730 mmHg 93%
    06:00 +9°C° 0.1 mm 5 mps 729 mmHg 93%
    07:00 +9°C° 0.4 mm 6 mps 729 mmHg 91%
    08:00 +9°C° 0.4 mm 6 mps 728 mmHg 89%
    09:00 +10°C° 0.4 mm 7 mps 727 mmHg 87%
    10:00 +10°C° 0.6 mm 8 mps 727 mmHg 81%
    11:00 +10°C° 0.6 mm 9 mps 727 mmHg 74%
    12:00 +8°C° 0.6 mm 10 mps 727 mmHg 67%
    13:00 +8°C° 0 mm 10 mps 727 mmHg 63%
    14:00 +7°C° 0 mm 11 mps 727 mmHg 59%
    15:00 +7°C° 0 mm 11 mps 727 mmHg 55%
    16:00 +6°C° 0.1 mm 11 mps 727 mmHg 59%
    17:00 +6°C° 0.1 mm 11 mps 727 mmHg 62%
    18:00 +6°C° 0.1 mm 11 mps 727 mmHg 66%
    19:00 +4°C° 0 mm 11 mps 727 mmHg 68%
    20:00 +4°C° 0 mm 11 mps 727 mmHg 70%
    21:00 +4°C° 0 mm 11 mps 727 mmHg 72%
    22:00 +5°C° 0.1 mm 10 mps 728 mmHg 73%
    23:00 +5°C° 0.1 mm 10 mps 728 mmHg 74%

    26 October, Friday

    Time Temperature Precipitation Wind Pressure Humidity
    00:00 +3°C° 0.1 mm 9 mps 729 mmHg 76%
    01:00 +3°C° 0.1 mm 9 mps 730 mmHg 75%
    02:00 +4°C° 0.1 mm 8 mps 731 mmHg 74%
    03:00 +2°C° 0.1 mm 8 mps 732 mmHg 74%
    04:00 +3°C° 0 mm 7 mps 733 mmHg 74%
    05:00 +3°C° 0 mm 7 mps 734 mmHg 74%
    06:00 +2°C° 0 mm 7 mps 735 mmHg 74%
    07:00 +2°C° 0 mm 6 mps 736 mmHg 73%
    08:00 +2°C° 0 mm 6 mps 736 mmHg 72%
    09:00 +2°C° 0 mm 6 mps 737 mmHg 71%
    10:00 +2°C° 0 mm 6 mps 738 mmHg 69%
    11:00 +3°C° 0 mm 6 mps 738 mmHg 67%
    12:00 +3°C° 0 mm 6 mps 739 mmHg 66%
    13:00 +3°C° 0 mm 6 mps 740 mmHg 66%
    14:00 +3°C° 0 mm 6 mps 740 mmHg 66%
    15:00 +3°C° 0 mm 6 mps 741 mmHg 67%
    16:00 +3°C° 0 mm 5 mps 741 mmHg 68%
    17:00 +3°C° 0 mm 5 mps 742 mmHg 69%
    18:00 +4°C° 0 mm 4 mps 743 mmHg 69%
    19:00 +4°C° 0 mm 4 mps 743 mmHg 70%
    20:00 +3°C° 0 mm 4 mps 743 mmHg 71%
    21:00 +3°C° 0 mm 4 mps 744 mmHg 72%
    22:00 +3°C° 0 mm 4 mps 744 mmHg 72%
    23:00 +3°C° 0 mm 3 mps 745 mmHg 71%

    27 October, Saturday

    Time Temperature Precipitation Wind Pressure Humidity
    00:00 +3°C° 0 mm 3 mps 745 mmHg 71%
    01:00 +3°C° 0 mm 3 mps 746 mmHg 73%
    02:00 +3°C° 0 mm 3 mps 746 mmHg 75%
    03:00 +3°C° 0 mm 4 mps 747 mmHg 77%
    04:00 +3°C° 0 mm 4 mps 747 mmHg 78%
    05:00 +3°C° 0 mm 4 mps 747 mmHg 80%
    06:00 +3°C° 0 mm 4 mps 748 mmHg 82%
    07:00 +3°C° 0 mm 5 mps 748 mmHg 81%
    08:00 +3°C° 0 mm 5 mps 748 mmHg 81%
    09:00 +3°C° 0 mm 6 mps 748 mmHg 81%
    10:00 +4°C° 0 mm 6 mps 748 mmHg 75%
    11:00 +6°C° 0 mm 7 mps 748 mmHg 69%
    12:00 +8°C° 0 mm 7 mps 748 mmHg 64%
    13:00 +8°C° 0 mm 7 mps 748 mmHg 65%
    14:00 +9°C° 0 mm 7 mps 748 mmHg 67%
    15:00 +9°C° 0 mm 7 mps 748 mmHg 69%
    16:00 +9°C° 0 mm 7 mps 748 mmHg 70%
    17:00 +9°C° 0 mm 6 mps 748 mmHg 72%
    18:00 +9°C° 0 mm 5 mps 749 mmHg 74%
    19:00 +8°C° 0 mm 5 mps 749 mmHg 75%
    20:00 +8°C° 0 mm 5 mps 749 mmHg 75%
    21:00 +8°C° 0 mm 5 mps 749 mmHg 76%
    22:00 +8°C° 0 mm 5 mps 749 mmHg 78%
    23:00 +7°C° 0 mm 5 mps 749 mmHg 80%

    28 October, Sunday

    Time Temperature Precipitation Wind Pressure Humidity
    00:00 +7°C° 0 mm 5 mps 749 mmHg 82%
    01:00 +7°C° 0 mm 5 mps 749 mmHg 83%
    02:00 +7°C° 0 mm 5 mps 749 mmHg 84%
    03:00 +7°C° 0 mm 5 mps 749 mmHg 85%
    04:00 +8°C° 0.2 mm 5 mps 749 mmHg 86%
    05:00 +8°C° 0.2 mm 6 mps 749 mmHg 87%
    06:00 +8°C° 0.2 mm 6 mps 749 mmHg 87%
    07:00 +9°C° 0.2 mm 7 mps 749 mmHg 85%
    08:00 +9°C° 0.2 mm 7 mps 749 mmHg 83%
    09:00 +10°C° 0.2 mm 8 mps 749 mmHg 81%
    10:00 +11°C° 0 mm 8 mps 749 mmHg 76%
    11:00 +12°C° 0 mm 8 mps 749 mmHg 72%
    12:00 +13°C° 0 mm 8 mps 749 mmHg 67%
    13:00 +13°C° 0 mm 8 mps 749 mmHg 63%
    14:00 +15°C° 0 mm 8 mps 749 mmHg 60%
    15:00 +15°C° 0 mm 8 mps 749 mmHg 56%
    16:00 +15°C° 0 mm 7 mps 749 mmHg 57%
    17:00 +14°C° 0 mm 7 mps 749 mmHg 58%
    18:00 +14°C° 0 mm 7 mps 749 mmHg 59%
    19:00 +12°C° 0 mm 7 mps 749 mmHg 60%
    20:00 +12°C° 0 mm 7 mps 749 mmHg 60%
    21:00 +13°C° 0 mm 6 mps 749 mmHg 61%
    22:00 +13°C° 0 mm 6 mps 750 mmHg 62%
    23:00 +11°C° 0 mm 6 mps 750 mmHg 63%
    Show more